Flag for Canada Weather past 2 weeks in Nelson, British Columbia, Canada

Now
53 °F

Cool.


Feels Like: 52 °F
Forecast: 35 / 39 °F
Wind: 5 mph from West

Location: Nelson

Current Time: Oct 21, 2014 at 5:32:34 PM

Latest Report: Oct 21, 2014 at 5:00 PM


Visibility: N/A

Pressure: 29.89 "Hg

Humidity: 83%

Dew point: 48 °F

Location of NelsonLocation

Historic Weather in Nelson — Graph

°F

Nelson temperature yesterday

Maximum temperature yesterday: 61 °F (at 3:00 PM)
Minimum temperature yesterday: 48 °F (at 1:00 AM)
Average temperature yesterday: 53 °F

Past Weeks' High & Low Weather Summary

 TemperatureHumidityPressure
High73 °F (Oct 7, 3:00 PM)100% (Oct 16, 12:00 AM)30.18 "Hg (Oct 16, 12:00 AM)
Low40 °F (Oct 17, 1:00 AM)38% (Oct 11, 2:00 PM)29.60 "Hg (Oct 15, 7:00 AM)
Average53 °F80%29.94 "Hg
* Reported Oct 6 4:00 PM — Oct 21 4:00 PM, Nelson, Weather by CustomWeather, © 2014

Note: Actual official high and low records may vary slightly from our data, if they occured in-between our weather recording intervals... More about our weather records

Advertising

Nelson weather history for previous 24 hours

 ConditionsComfort  
Time TempWeatherWind HumidityBarometerVisibility
4:00 PM
Oct 21
55 °FCool.9 mph64%29.88 "HgN/A
3:00 PM58 °FCool.6 mph67%29.85 "HgN/A
2:00 PM57 °FCool.6 mph66%29.84 "HgN/A
1:00 PM57 °FCool.6 mph73%29.83 "HgN/A
12:00 PM55 °FCool.5 mph82%29.85 "HgN/A
11:00 AM53 °FCool.7 mph83%29.85 "HgN/A
10:00 AM52 °FCool.10 mph86%29.84 "HgN/A
9:00 AM51 °FCool.10 mph90%29.83 "HgN/A
8:00 AM51 °FCool.5 mph94%29.83 "HgN/A
7:00 AM51 °FCool.6 mph91%29.81 "HgN/A
6:00 AM51 °FCool.5 mph95%29.80 "HgN/A
5:00 AM51 °FCool.6 mph95%29.78 "HgN/A
4:00 AM51 °FCool.2 mph95%29.77 "HgN/A
3:00 AM51 °FCool.5 mph94%29.78 "HgN/A
2:00 AM52 °FCool.5 mph94%29.78 "HgN/A
1:00 AM52 °FCool.5 mph92%29.77 "HgN/A
12:00 AM53 °FCool.5 mph91%29.76 "HgN/A
11:00 PM
Oct 20
54 °FCool.15 mph92%29.75 "HgN/A
10:00 PM55 °FCool.5 mph84%29.70 "HgN/A
9:00 PM57 °FCool.9 mph80%29.70 "HgN/A
8:00 PM54 °FCool.3 mph84%29.70 "HgN/A
7:00 PM54 °FCool.1 mph87%29.71 "HgN/A
6:00 PM56 °FCool.1 mph81%29.71 "HgN/A
5:00 PM57 °FCool.2 mph78%29.72 "HgN/A
Weather by CustomWeather, © 2014

See weather overviewHow to use our weather pages